Time,TemperatureF,DewpointF,PressureIn,WindDirection,WindDirectionDegrees,WindSpeedMPH,WindSpeedGustMPH,Humidity,HourlyPrecipIn,Conditions,Clouds,dailyrainin,SoftwareType,DateUTC
2013-11-25 00:00:00,-999.0,-99.9,-100.00,North,-999,10.0,16.0,68,-99.99,,,-99.99,,2013-11-25 06:00:00,
2013-11-25 00:22:00,-999.0,-99.9,-100.00,North,-999,10.0,16.0,68,-99.99,,,-99.99,,2013-11-25 06:22:00,
2013-11-25 00:32:00,-999.0,-99.9,-100.00,North,-999,10.0,16.0,68,-99.99,,,-99.99,,2013-11-25 06:32:00,
2013-11-25 00:42:00,-999.0,-99.9,-100.00,North,-999,10.0,16.0,68,-99.99,,,-99.99,,2013-11-25 06:42:00,
2013-11-25 00:52:00,-999.0,-99.9,-100.00,North,-999,10.0,16.0,68,-99.99,,,-99.99,,2013-11-25 06:52:00,
2013-11-25 04:00:00,-999.0,-99.9,-100.00,North,-999,6.0,10.0,82,-99.99,,,-99.99,,2013-11-25 10:00:00,
2013-11-25 04:23:00,-999.0,-99.9,-100.00,North,-999,6.0,10.0,82,-99.99,,,-99.99,,2013-11-25 10:23:00,
2013-11-25 04:34:00,-999.0,-99.9,-100.00,North,-999,6.0,10.0,82,-99.99,,,-99.99,,2013-11-25 10:34:00,
2013-11-25 04:43:00,-999.0,-99.9,-100.00,North,-999,6.0,10.0,82,-99.99,,,-99.99,,2013-11-25 10:43:00,
2013-11-25 04:53:00,-999.0,-99.9,-100.00,North,-999,6.0,10.0,82,-99.99,,,-99.99,,2013-11-25 10:53:00,
2013-11-25 05:00:00,-999.0,-99.9,-100.00,North,-999,5.0,9.0,87,-99.99,,,-99.99,,2013-11-25 11:00:00,
2013-11-25 05:22:00,-999.0,-99.9,-100.00,North,-999,5.0,9.0,87,-99.99,,,-99.99,,2013-11-25 11:22:00,
2013-11-25 05:33:00,-999.0,-99.9,-100.00,North,-999,5.0,9.0,87,-99.99,,,-99.99,,2013-11-25 11:33:00,
2013-11-25 05:43:00,-999.0,-99.9,-100.00,North,-999,5.0,9.0,87,-99.99,,,-99.99,,2013-11-25 11:43:00,
2013-11-25 05:52:00,-999.0,-99.9,-100.00,North,-999,5.0,9.0,87,-99.99,,,-99.99,,2013-11-25 11:52:00,
2013-11-25 06:00:00,-999.0,-99.9,-100.00,North,-999,4.0,7.0,88,-99.99,,,-99.99,,2013-11-25 12:00:00,
2013-11-25 06:22:00,-999.0,-99.9,-100.00,North,-999,4.0,7.0,88,-99.99,,,-99.99,,2013-11-25 12:22:00,
2013-11-25 06:32:00,-999.0,-99.9,-100.00,North,-999,4.0,7.0,88,-99.99,,,-99.99,,2013-11-25 12:32:00,
2013-11-25 06:42:00,-999.0,-99.9,-100.00,North,-999,4.0,7.0,88,-99.99,,,-99.99,,2013-11-25 12:42:00,
2013-11-25 06:52:00,-999.0,-99.9,-100.00,North,-999,4.0,7.0,88,-99.99,,,-99.99,,2013-11-25 12:52:00,
2013-11-25 07:00:00,-999.0,-99.9,-100.00,North,-999,4.0,7.0,89,-99.99,,,-99.99,,2013-11-25 13:00:00,
2013-11-25 07:12:00,-999.0,-99.9,-100.00,North,-999,4.0,7.0,89,-99.99,,,-99.99,,2013-11-25 13:12:00,
2013-11-25 07:22:00,-999.0,-99.9,-100.00,North,-999,4.0,7.0,89,-99.99,,,-99.99,,2013-11-25 13:22:00,
2013-11-25 07:32:00,-999.0,-99.9,-100.00,North,-999,4.0,7.0,89,-99.99,,,-99.99,,2013-11-25 13:32:00,
2013-11-25 07:42:00,-999.0,-99.9,-100.00,North,-999,4.0,7.0,89,-99.99,,,-99.99,,2013-11-25 13:42:00,
2013-11-25 07:52:00,-999.0,-99.9,-100.00,North,-999,4.0,7.0,89,-99.99,,,-99.99,,2013-11-25 13:52:00,
2013-11-25 13:00:00,-999.0,-99.9,-100.00,North,-999,9.0,15.0,50,-99.99,,,-99.99,,2013-11-25 19:00:00,
2013-11-25 13:22:00,-999.0,-99.9,-100.00,North,-999,9.0,15.0,50,-99.99,,,-99.99,,2013-11-25 19:22:00,
2013-11-25 13:32:00,-999.0,-99.9,-100.00,North,-999,9.0,15.0,50,-99.99,,,-99.99,,2013-11-25 19:32:00,
2013-11-25 13:42:00,-999.0,-99.9,-100.00,North,-999,9.0,15.0,50,-99.99,,,-99.99,,2013-11-25 19:42:00,
2013-11-25 13:52:00,-999.0,-99.9,-100.00,North,-999,9.0,15.0,50,-99.99,,,-99.99,,2013-11-25 19:52:00,
2013-11-25 14:00:00,-999.0,-99.9,-100.00,North,-999,11.0,20.0,49,-99.99,,,-99.99,,2013-11-25 20:00:00,
2013-11-25 14:22:00,-999.0,-99.9,-100.00,North,-999,11.0,20.0,49,-99.99,,,-99.99,,2013-11-25 20:22:00,
2013-11-25 14:32:00,-999.0,-99.9,-100.00,North,-999,11.0,20.0,49,-99.99,,,-99.99,,2013-11-25 20:32:00,
2013-11-25 14:42:00,-999.0,-99.9,-100.00,North,-999,11.0,20.0,49,-99.99,,,-99.99,,2013-11-25 20:42:00,
2013-11-25 14:53:00,-999.0,-99.9,-100.00,North,-999,11.0,20.0,49,-99.99,,,-99.99,,2013-11-25 20:53:00,
2013-11-25 15:00:00,-999.0,-99.9,-100.00,North,-999,10.0,17.0,50,-99.99,,,-99.99,,2013-11-25 21:00:00,
2013-11-25 15:22:00,-999.0,-99.9,-100.00,North,-999,10.0,17.0,50,-99.99,,,-99.99,,2013-11-25 21:22:00,
2013-11-25 15:33:00,-999.0,-99.9,-100.00,North,-999,10.0,17.0,50,-99.99,,,-99.99,,2013-11-25 21:33:00,
2013-11-25 15:44:00,-999.0,-99.9,-100.00,North,-999,10.0,17.0,50,-99.99,,,-99.99,,2013-11-25 21:44:00,
2013-11-25 15:54:00,-999.0,-99.9,-100.00,North,-999,10.0,17.0,50,-99.99,,,-99.99,,2013-11-25 21:54:00,
2013-11-25 16:00:00,-999.0,-99.9,-100.00,North,-999,8.0,14.0,56,-99.99,,,-99.99,,2013-11-25 22:00:00,
2013-11-25 16:23:00,-999.0,-99.9,-100.00,North,-999,8.0,14.0,56,-99.99,,,-99.99,,2013-11-25 22:23:00,
2013-11-25 16:33:00,-999.0,-99.9,-100.00,North,-999,8.0,14.0,56,-99.99,,,-99.99,,2013-11-25 22:33:00,
2013-11-25 16:43:00,-999.0,-99.9,-100.00,North,-999,8.0,14.0,56,-99.99,,,-99.99,,2013-11-25 22:43:00,
2013-11-25 16:53:00,-999.0,-99.9,-100.00,North,-999,8.0,14.0,56,-99.99,,,-99.99,,2013-11-25 22:53:00,
2013-11-25 18:00:00,-999.0,-99.9,-100.00,North,-999,5.0,9.0,67,-99.99,,,-99.99,,2013-11-26 00:00:00,
2013-11-25 18:22:00,-999.0,-99.9,-100.00,North,-999,5.0,9.0,67,-99.99,,,-99.99,,2013-11-26 00:22:00,
2013-11-25 18:32:00,-999.0,-99.9,-100.00,North,-999,5.0,9.0,67,-99.99,,,-99.99,,2013-11-26 00:32:00,
2013-11-25 18:42:00,-999.0,-99.9,-100.00,North,-999,5.0,9.0,67,-99.99,,,-99.99,,2013-11-26 00:42:00,
2013-11-25 18:52:00,-999.0,-99.9,-100.00,North,-999,5.0,9.0,67,-99.99,,,-99.99,,2013-11-26 00:52:00,
2013-11-25 20:00:00,-999.0,-99.9,-100.00,North,-999,5.0,9.0,71,-99.99,,,-99.99,,2013-11-26 02:00:00,
2013-11-25 20:22:00,-999.0,-99.9,-100.00,North,-999,5.0,9.0,71,-99.99,,,-99.99,,2013-11-26 02:22:00,
2013-11-25 20:32:00,-999.0,-99.9,-100.00,North,-999,5.0,9.0,71,-99.99,,,-99.99,,2013-11-26 02:32:00,
2013-11-25 20:42:00,-999.0,-99.9,-100.00,North,-999,5.0,9.0,71,-99.99,,,-99.99,,2013-11-26 02:42:00,
2013-11-25 20:52:00,-999.0,-99.9,-100.00,North,-999,5.0,9.0,71,-99.99,,,-99.99,,2013-11-26 02:52:00,
2013-11-25 21:00:00,-999.0,-99.9,-100.00,North,-999,4.0,8.0,73,-99.99,,,-99.99,,2013-11-26 03:00:00,
2013-11-25 21:22:00,-999.0,-99.9,-100.00,North,-999,4.0,8.0,73,-99.99,,,-99.99,,2013-11-26 03:22:00,
2013-11-25 21:33:00,-999.0,-99.9,-100.00,North,-999,4.0,8.0,73,-99.99,,,-99.99,,2013-11-26 03:33:00,
2013-11-25 21:44:00,-999.0,-99.9,-100.00,North,-999,4.0,8.0,73,-99.99,,,-99.99,,2013-11-26 03:44:00,
2013-11-25 21:54:00,-999.0,-99.9,-100.00,North,-999,4.0,8.0,73,-99.99,,,-99.99,,2013-11-26 03:54:00,
2013-11-25 23:00:00,-999.0,-99.9,-100.00,North,-999,7.0,14.0,65,-99.99,,,-99.99,,2013-11-26 05:00:00,
2013-11-25 23:13:00,-999.0,-99.9,-100.00,North,-999,7.0,14.0,65,-99.99,,,-99.99,,2013-11-26 05:13:00,
2013-11-25 23:23:00,-999.0,-99.9,-100.00,North,-999,7.0,14.0,65,-99.99,,,-99.99,,2013-11-26 05:23:00,
2013-11-25 23:34:00,-999.0,-99.9,-100.00,North,-999,7.0,14.0,65,-99.99,,,-99.99,,2013-11-26 05:34:00,
2013-11-25 23:43:00,-999.0,-99.9,-100.00,North,-999,7.0,14.0,65,-99.99,,,-99.99,,2013-11-26 05:43:00,
2013-11-25 23:53:00,-999.0,-99.9,-100.00,North,-999,7.0,14.0,65,-99.99,,,-99.99,,2013-11-26 05:53:00,